Home > Weather > Ramsey > Past weeks

Flag for Isle of Man Weather for the Past 2 Weeks in Ramsey, Isle of Man

Now
45 °F

Passing clouds.


Feels Like: 38 °F
Forecast: 46 / 53 °F
Wind: 14 mph from West

Location: Isle Of Man / Ronaldsway Airport

Current Time: Apr 30, 2016 at 8:55:26 AM

Latest Report: Apr 30, 2016 at 8:20 AM


Visibility: N/A

Pressure: 30.09 "Hg

Humidity: 71%

Dew Point: 36 °F

Location of RamseyLocation

Historic Weather in Ramsey — Graph

°F

Ramsey Temperature Yesterday

Maximum temperature yesterday: 50 °F (at 4:50 PM)
Minimum temperature yesterday: 37 °F (at 3:50 AM)
Average temperature yesterday: 44 °F

High & Low Weather Summary for the Past Weeks

 TemperatureHumidityPressure
High59 °F (Apr 21, 4:20 PM)100% (Apr 28, 11:50 AM)30.45 "Hg (Apr 28, 11:50 AM)
Low36 °F (Apr 16, 2:50 AM)33% (Apr 21, 1:50 PM)29.53 "Hg (Apr 15, 5:50 PM)
Average46 °F68%30.02 "Hg
* Reported Apr 15 7:20 AM — Apr 30 7:20 AM, Ramsey, Weather by CustomWeather, © 2016

Note: Actual official high and low records may vary slightly from our data, if they occured in-between our weather recording intervals... More about our weather records

Advertising

Ramsey Weather History for the Previous 24 Hours

Scroll right to see more
 ConditionsComfort  
Time TempWeatherWind HumidityBarometerVisibility
7:20 AM
Sat, Apr 30
43 °FPassing clouds.9 mph81%30.07 "HgN/A
6:50 AM43 °FPassing clouds.9 mph81%30.07 "HgN/A
6:20 AM43 °FPassing clouds.9 mph81%30.07 "HgN/A
5:50 AM43 °FPassing clouds.7 mph76%30.07 "HgN/A
4:50 AM43 °FPassing clouds.12 mph81%30.04 "HgN/A
3:50 AM43 °FPassing clouds.10 mph81%30.04 "HgN/A
2:50 AM43 °FPassing clouds.7 mph81%30.04 "HgN/A
1:50 AM43 °FPassing clouds.8 mph81%30.01 "HgN/A
12:50 AM43 °FPassing clouds.9 mph81%30.01 "HgN/A
11:50 PM
Fri, Apr 29
43 °FPassing clouds.8 mph76%29.98 "HgN/A
10:50 PM45 °FPassing clouds.7 mph66%29.98 "HgN/A
9:50 PM45 °FPassing clouds.13 mph66%29.98 "HgN/A
9:20 PM45 °FPassing clouds.10 mph66%29.95 "HgN/A
8:50 PM45 °FPassing clouds.14 mph71%29.95 "HgN/A
8:20 PM45 °FPassing clouds.14 mph71%29.92 "HgN/A
7:50 PM46 °FPassing clouds.17 mph66%29.92 "HgN/A
7:20 PM46 °FPassing clouds.22 mph66%29.89 "HgN/A
6:50 PM48 °FPassing clouds.18 mph58%29.89 "HgN/A
6:20 PM48 °FPassing clouds.17 mph58%29.89 "HgN/A
5:50 PM48 °FPassing clouds.22 mph54%29.86 "HgN/A
5:20 PM50 °FPassing clouds.16 mph50%29.86 "HgN/A
4:50 PM50 °FPassing clouds.17 mph50%29.86 "HgN/A
4:20 PM48 °FPassing clouds.20 mph54%29.83 "HgN/A
3:50 PM48 °FPassing clouds.20 mph58%29.83 "HgN/A
3:20 PM48 °FPassing clouds.18 mph58%29.83 "HgN/A
2:50 PM48 °FPassing clouds.20 mph62%29.80 "HgN/A
2:20 PM46 °FPassing clouds.20 mph57%29.80 "HgN/A
1:50 PM46 °FPassing clouds.18 mph57%29.80 "HgN/A
1:20 PM46 °FPassing clouds.18 mph62%29.77 "HgN/A
12:50 PM46 °FPassing clouds.18 mph62%29.77 "HgN/A
12:20 PM45 °FScattered clouds.17 mph66%29.74 "HgN/A
11:50 AM45 °FSprinkles. Passing clouds.18 mph66%29.74 "HgN/A
11:20 AM45 °FSprinkles. Scattered clouds.18 mph71%29.71 "HgN/A
10:50 AM45 °FScattered clouds.15 mph71%29.71 "HgN/A
10:20 AM45 °FBroken clouds.17 mph66%29.71 "HgN/A
9:50 AM43 °FPassing clouds.15 mph71%29.68 "HgN/A
9:20 AM41 °FSprinkles. Broken clouds.15 mph81%29.68 "HgN/A
8:50 AM41 °FSprinkles. Scattered clouds.15 mph87%29.65 "HgN/A
8:20 AM39 °FSprinkles. Scattered clouds.16 mph93%29.65 "HgN/A
Weather by CustomWeather, © 2016

See weather overviewHow to use our weather pages